Torna al catalogo

USA 62

AttivoMilitareLEO
NORAD 20692·PAYLOAD·🇺🇸 United States

Lanciato Jun 8, 1990 da Cape Canaveral Space Force Station

Loading…

Prossimi Passaggi (prossime 24 ore)

TLE

AggiornatoSource: Space-Track

Epoca: Sep 14, 2026, 14:36 UTC

1 20692U 90050D   26257.60844558  .00003123  00000-0  22253-3 0  9991
2 20692  63.2958 327.4772 0870168  86.4292 283.5731 13.65703698116923

Traccia USA 62 in tempo reale con AllMySat

Download on the App Store